Terug naar catalogus

STARLINK-35570

ActiefCommunicatieVLEO
NORAD 66090·PAYLOAD·🇺🇸 United States

Gelanceerd Oct 19, 2025 vanaf Vandenberg Space Force Base

Loading…

Volgende Passages (komende 24 uur)

TLE

VersSource: CelesTrak SupGP

Epoch: Sep 14, 2026, 20:37 UTC

1 66090C 25236E   26257.85951389 -.00113240  00000+0 -33450-2 0  2575
2 66090  53.1588 303.9139 0001402  86.6396 339.1722 15.34452665    15

Volg STARLINK-35570 in realtime met AllMySat

Download on the App Store